Regional Weather Roundup
Issued by NWS

Home | Current Version | Previous Version | Text Only | Print | Product List | Glossary On
Versions: 1 2 3 4 5 6 7 8 9 10 11 12 13 14 15 16 17 18 19 20 21 22 23 24 25 26 27 28 29 30 31 32 33 34 35 36 37 38 39 40 41 42 43 44 45 46 47 48 49 50
000
ASUS42 KKEY 252110
RWRKEY

FLORIDA REGIONAL WEATHER ROUNDUP FOR THE FLORIDA KEYS
NATIONAL WEATHER SERVICE KEY WEST FLORIDA
500 PM EDT TUE JUL 25 2017

...SOUTH FLORIDA AND THE KEYS...

CITY           SKY/WX    TMP DP  RH WIND       PRES   REMARKS
FORT MYERS     CLOUDY    91  77  63 W10       30.08F THUNDER HX 104
SW REGIONAL AP TSTM      79  76  90 N10       30.10S FOG
NAPLES         MOSUNNY   90  77  65 NW9       30.08F HX 103
MIAMI          LGT RAIN  83  75  77 VRB3      30.11F HX  90
WEST KENDALL   CLOUDY    82  76  81 S7        30.10F
HOMESTEAD      CLOUDY    82  76  84 CALM      30.09F
MARATHON       CLOUDY    90  79  70 E7        30.09F HX 106
BOCA CHICA NAS CLOUDY    86  73  65 NE3       30.09F HX  93
KEY WEST INTL  CLOUDY    86  72  62 NE5       30.09F HX  92

...INTERNATIONAL WEATHER...

CITY           SKY/WX    TMP DP  RH WIND       PRES   REMARKS
NASSAU BAHAMAS PTSUNNY   91  77  62 E6        30.11F HX 105
CANCUN MEXICO  PTSUNNY   90  77  66 NE10      30.03F HX 102
COZUMEL MEXICO PTSUNNY   88  79  74 E14       30.00F HX 102

ADJACENT COASTAL WATERS...

STATION/POSITION TIME  SKY/WX   TEMP    WIND        PRES    WAVE
                                AIR SEA DIR/SP/G            HT/PER
                 (UTC)          (F)     (DEG/KT/KT) (MB)    (FT/S)
PULASKI SHOAL LI 2100            87      70/  6/  7 1019.1F
SAND KEY         2050            83                 1019.6F
LONG KEY         NOT AVBL
MOLASSES REEF    2000            86 87  100/  4/  5 1019.9
FOWEY ROCKS      2000            86 87  130/  6/  6 1020.5S
Buoy 42097       2030               88                N/A     1/ 5

$$



USA.gov is the U.S. government's official web portal to all federal, state and local government web resources and services.